Date,TemperatureHighF,TemperatureAvgF,TemperatureLowF,DewpointHighF,DewpointAvgF,DewpointLowF,HumidityHigh,HumidityAvg,HumidityLow,PressureMaxIn,PressureMinIn,WindSpeedMaxMPH,WindSpeedAvgMPH,GustSpeedMaxMPH,PrecipitationSumIn
2013-3-1,73,57,47,56,50,45,100,79,48,30.27,30.07,9,0,0,0.00
2013-3-2,68,57,51,55,50,48,92,78,57,30.08,29.91,10,1,0,0.00
2013-3-3,66,53,46,53,48,43,94,84,57,29.94,29.88,11,1,0,0.00
2013-3-4,57,48,43,49,44,39,94,86,71,29.99,29.90,9,0,0,0.00
2013-3-5,56,48,41,47,43,38,94,83,68,29.91,29.67,20,1,20,0.16
2013-3-6,56,50,44,49,45,42,96,83,66,29.91,29.67,22,2,22,0.11
2013-3-7,54,48,43,47,44,41,94,86,64,29.84,29.70,9,1,0,0.01
2013-3-8,62,51,44,47,42,39,93,74,47,29.89,29.68,15,1,15,0.00
2013-3-9,68,54,43,49,44,39,90,71,39,30.15,29.88,9,1,0,0.00
2013-3-10,68,54,45,50,45,39,90,73,40,30.19,30.09,9,1,0,0.00
2013-3-11,70,54,44,51,46,41,94,76,44,30.10,29.95,8,0,0,0.00
2013-3-12,69,54,46,56,50,45,97,86,61,30.01,29.91,6,0,0,0.00
2013-3-13,75,58,45,58,51,44,100,81,50,30.00,29.91,12,1,12,0.00
2013-3-14,64,54,46,55,50,45,98,86,69,30.01,29.93,7,0,0,0.00
2013-3-15,67,54,46,54,49,44,94,83,56,29.97,29.88,6,0,0,0.00
2013-3-16,72,57,47,55,48,41,100,75,35,29.96,29.86,15,1,15,0.00
2013-3-17,68,56,48,50,45,41,85,66,49,29.99,29.88,12,1,12,0.00
2013-3-18,62,52,45,52,46,42,93,81,62,29.97,29.88,8,0,0,0.00
2013-3-19,62,52,47,51,47,42,94,83,64,29.98,29.90,7,0,0,0.05
2013-3-20,56,52,48,56,50,45,97,94,89,29.98,29.90,8,0,0,0.26
2013-3-21,64,53,43,50,44,40,95,74,51,29.97,29.85,13,1,13,0.01
2013-3-22,67,55,46,46,38,26,85,57,23,29.96,29.87,10,1,0,0.00
2013-3-23,66,55,46,44,38,27,81,57,26,29.99,29.89,10,1,0,0.00
2013-3-24,65,53,45,52,46,41,90,78,56,29.94,29.81,7,1,0,0.00
2013-3-25,60,50,42,50,45,40,93,83,68,29.86,29.77,10,1,0,0.00
2013-3-26,63,52,45,52,46,42,90,82,66,29.85,29.78,8,1,0,0.00
2013-3-27,59,53,48,55,50,45,97,92,85,29.86,29.79,7,0,0,0.00
2013-3-28,66,56,52,58,53,50,97,90,71,29.93,29.84,7,0,0,0.01
2013-3-29,74,58,48,58,52,47,97,82,52,29.93,29.85,11,1,0,0.00
2013-3-30,68,55,51,56,52,50,96,89,62,29.92,29.83,13,1,13,0.12
2013-3-31,63,56,53,60,54,52,98,93,74,29.91,29.84,12,1,12,0.08